Location: Krakow
(50.0830°N, 19.9170°E)
Time: 07:05:55
(UTC+02:00)

Tiros 1 - All Passes

Search period start: 09 June 2026 00:00
Search period end: 19 June 2026 00:00
Orbit: 617 x 649 km, 48.4° (Epoch: 7 June)

Date Brightness Start Highest point End Pass type
(mag) Time Alt. Az. Time Alt. Az. Time Alt. Az.
9 Jun - 14:09:34 10° S 14:12:59 20° SE 14:16:25 10° E daylight
9 Jun - 15:49:38 10° WSW 15:54:14 52° SSE 15:58:50 10° E daylight
9 Jun - 17:31:14 10° W 17:35:57 74° S 17:40:39 10° E daylight
9 Jun - 19:13:06 10° W 19:17:39 48° SSW 19:22:09 10° SE daylight
9 Jun - 20:55:45 10° W 20:58:47 17° SW 21:01:48 10° S daylight
10 Jun - 14:29:55 10° SSW 14:34:06 32° SSE 14:38:18 10° E daylight
10 Jun - 16:10:54 10° WSW 16:15:36 67° S 16:20:18 10° E daylight
10 Jun - 17:52:41 10° W 17:57:23 67° S 18:02:03 10° ESE daylight
10 Jun - 19:34:41 10° W 19:38:53 32° SSW 19:43:03 10° SSE daylight
11 Jun - 13:11:11 10° S 13:14:12 17° SE 13:17:13 10° E daylight
11 Jun - 14:50:49 10° SW 14:55:21 47° SSE 14:59:53 10° E daylight
11 Jun - 16:32:18 10° W 16:37:02 74° S 16:41:44 10° E daylight
11 Jun - 18:14:09 10° W 18:18:45 53° SSW 18:23:19 10° ESE daylight
11 Jun - 19:56:33 10° W 20:00:00 20° SW 20:03:25 10° S daylight
12 Jun - 13:31:15 10° SSW 13:35:16 28° SSE 13:39:17 10° E daylight
12 Jun - 15:12:00 10° WSW 15:16:41 63° SSE 15:21:22 10° E daylight
12 Jun - 16:53:45 10° W 16:58:28 70° S 17:03:09 10° ESE daylight
12 Jun - 18:35:41 10° W 18:40:02 37° SSW 18:44:21 10° SE daylight
12 Jun - 20:19:31 10° WSW 20:20:58 11° SW 20:22:24 10° SSW daylight
13 Jun - 12:12:58 10° S 12:15:25 14° SE 12:17:52 10° ESE daylight
13 Jun - 13:52:00 10° SW 13:56:27 42° SSE 14:00:55 10° E daylight
13 Jun - 15:33:22 10° W 15:38:06 72° S 15:42:48 10° E daylight
13 Jun - 17:15:12 10° W 17:19:51 58° SSW 17:24:28 10° ESE daylight
13 Jun - 18:57:25 10° W 19:01:11 24° SW 19:04:55 10° SSE daylight
14 Jun - 12:32:39 10° SSW 12:36:25 24° SE 12:40:13 10° E daylight
14 Jun - 14:13:07 10° WSW 14:17:46 58° SSE 14:22:26 10° E daylight
14 Jun - 15:54:48 10° W 15:59:32 72° S 16:04:14 10° E daylight
14 Jun - 17:36:42 10° W 17:41:10 42° SSW 17:45:35 10° SE daylight
14 Jun - 19:19:48 10° WSW 19:22:12 14° SW 19:24:35 10° SSW daylight
15 Jun - 11:15:04 10° SSE 11:16:38 12° SE 11:18:12 10° ESE daylight
15 Jun - 12:53:14 10° SW 12:57:35 37° SSE 13:01:56 10° E daylight
15 Jun - 14:34:27 10° WSW 14:39:09 70° S 14:43:52 10° E daylight
15 Jun - 16:16:14 10° W 16:20:56 63° SSW 16:25:35 10° ESE daylight
15 Jun - 17:58:21 10° W 18:02:21 28° SSW 18:06:19 10° SSE daylight
16 Jun - 11:34:07 10° S 11:37:35 21° SE 11:41:05 10° E daylight
16 Jun - 13:14:15 10° WSW 13:18:51 53° SSE 13:23:28 10° E daylight
16 Jun - 14:55:51 10° W 15:00:35 74° S 15:05:18 10° E daylight
16 Jun - 16:37:43 10° W 16:42:16 47° SSW 16:46:47 10° SE daylight
16 Jun - 18:20:25 10° W 18:23:24 17° SW 18:26:22 10° S daylight
17 Jun - 11:54:30 10° SW 11:58:42 33° SSE 12:02:56 10° E daylight
17 Jun - 13:35:31 10° WSW 13:40:13 67° S 13:44:55 10° E daylight
17 Jun - 15:17:17 10° W 15:21:59 67° S 15:26:41 10° ESE daylight
17 Jun - 16:59:17 10° W 17:03:29 32° SSW 17:07:39 10° SSE daylight
18 Jun - 10:35:42 10° S 10:38:46 17° SE 10:41:52 10° E daylight
18 Jun - 12:15:24 10° SW 12:19:56 48° SSE 12:24:30 10° E daylight
18 Jun - 13:56:54 10° W 14:01:38 74° S 14:06:21 10° E daylight
18 Jun - 15:38:45 10° W 15:43:21 52° SSW 15:47:56 10° ESE daylight
18 Jun - 17:21:10 10° W 17:24:35 20° SW 17:27:58 10° S daylight
